Hourly Data Report for August 21, 2020

SVARTEVAEG
NUNAVUT
Current Station Operator: ECCC - MSC

81°09'39.000" N
91°48'59.060" W
72.00 m
2403833
71872
NSG

Download Data

Hourly Data (August 2020)
Hourly Data Report for August 21, 2020
TIME Temp Definition
°C
Dew Point Definition
°C
Rel Hum Definition
%
Wind Dir Definition
10's deg

Wind Spd Definition
km/h
Visibility Definition
km
Stn Press Definition
kPa
Hmdx Definition


Wind Chill Definition


Weather Definition


00:00 3.0 2.6 97 27 32   99.88     LegendNANA
01:00 1.1 0.8 98 2 6   99.95     LegendNANA
02:00 1.5 1.2 98 35 11   99.98     LegendNANA
03:00 1.4 1.2 98 36 5   99.99     LegendNANA
04:00 1.6 1.4 98 1 4   100.01     LegendNANA
05:00 2.0 1.8 99 11 5   100.03     LegendNANA
06:00 2.5 2.3 99 14 8   100.04     LegendNANA
07:00 2.6 2.4 99 16 10   100.04     LegendNANA
08:00 3.0 2.8 99 17 13   100.03     LegendNANA
09:00 3.3 3.0 98 17 12   100.06     LegendNANA
10:00 4.0 3.6 97 20 7   100.09     LegendNANA
11:00 4.1 3.4 95 17 13   100.09     LegendNANA
12:00 4.0 3.3 95 18 11   100.10     LegendNANA
13:00 3.8 3.3 97 17 12   100.11     LegendNANA
14:00 3.9 3.6 98 17 13   100.13     LegendNANA
15:00 3.7 3.4 98 17 15   100.12     LegendNANA
16:00 3.8 3.6 98 18 11   100.13     LegendNANA
17:00 3.7 3.5 98 17 11   100.11     LegendNANA
18:00 4.4 3.8 96 20 20   100.06     LegendNANA
19:00 4.3 2.8 90 19 19   100.06     LegendNANA
20:00 4.1 2.6 90 20 14   100.05     LegendNANA
21:00 3.8 2.6 92 20 16   100.06     LegendNANA
22:00 3.3 2.1 92 17 18   100.03     LegendNANA
23:00 2.9 2.2 95 17 18   100.02     LegendNANA

Notes on Data Quality.

Legend

  • E = Estimated
  • M = Missing
  • NA = Not Available*
  • [empty] = Indicates an unobserved value
Date modified: